Regional Weather Roundup
Issued by NWS Upton, NY

Current Version | Previous Version | Text Only | Print | Product List | Glossary On
Versions: 1 2 3 4 5 6 7 8 9 10 11 12 13 14 15 16 17 18 19 20 21 22 23 24 25 26 27
000
ASUS41 KOKX 150908
RWROKX

REGIONAL WEATHER ROUNDUP
NATIONAL WEATHER SERVICE NEW YORK NY
400 AM EST FRI DEC 15 2017

NOTE: "FAIR" INDICATES FEW OR NO CLOUDS BELOW 12,000 FEET WITH NO
SIGNIFICANT WEATHER AND/OR OBSTRUCTIONS TO VISIBILITY.

NYZ071-072-176-178-NJZ106-104-151000-
NEW YORK CITY METRO AREA

CITY           SKY/WX    TMP DP  RH WIND       PRES   REMARKS
Central Park   PTCLDY    21   7  54 NW6       30.11F WCI  13
Bronx Bot Gard   N/A     21   7  53 CALM      30.09F
Bronx Lehman C NOT AVBL
LaGuardia APRT MOCLDY    23   8  52 N9        30.10F WCI  13
Queens College NOT AVBL
Kennedy INTL   PTCLDY    20   8  60 NW8       30.11F WCI  10
Breezy Point     N/A    N/A N/A N/A NW8         N/A
Brooklyn Coll  NOT AVBL
Staten Island  NOT AVBL
Newark/Liberty MOCLDY    20   7  57 NW7       30.11F WCI  11
Teterboro      PTCLDY    20   7  57 CALM      30.10F
$$

NYZ177-179-078>081-151000-
LONG ISLAND NEW YORK

CITY           SKY/WX    TMP DP  RH WIND       PRES   REMARKS
Jones Beach      N/A    N/A N/A N/A NW6G12      N/A
Wantagh        NOT AVBL
Matinecock PT    N/A    N/A N/A N/A NW10        N/A
Farmingdale    CLEAR     19   6  57 CALM      30.10F
MacArthur/ISP  CLEAR     15   6  67 W3        30.09F
Shirley        CLEAR     12   7  80 CALM      30.10F
Mt Sinai Harb    N/A    N/A N/A N/A NW3G9       N/A
Westhampton    CLEAR      4  -3  73 CALM      30.12R
East Hampton   FAIR       9   5  84 CALM      30.08F
Southold       NOT AVBL
Montauk          N/A     26  12  55 NW10      30.10S WCI  16
$$

NYZ052-065-067-151000-
HUDSON VALLEY

CITY           SKY/WX    TMP DP  RH WIND       PRES   REMARKS
White Plains   PTCLDY    19   8  62 NW12      30.05F WCI   7
Larchmont Harb   N/A    N/A N/A N/A W8          N/A
Croton On Huds   N/A    N/A N/A N/A N1          N/A
Somers         NOT AVBL
Brewster       NOT AVBL
Newburgh       CLEAR     12   7  79 W7        30.07F WCI   2
Montgomery     CLOUDY    13   4  67 SW5       30.06F WCI   5
Otisville      NOT AVBL
Warwick        NOT AVBL
Suffern        NOT AVBL
Poughkeepsie   PTCLDY    10   5  80 CALM      30.09S
Albany         CLOUDY     8   2  76 S5        30.07S WCI   0
$$

NJZ001-105-106-008-010-013-015-019>022-104-151000-
NEW JERSEY

CITY           SKY/WX    TMP DP  RH WIND       PRES   REMARKS
Newark/Liberty MOCLDY    20   7  57 NW7       30.11F WCI  11
Teterboro      PTCLDY    20   7  57 CALM      30.10F
Caldwell       CLOUDY    16   7  67 CALM      30.10F
Somerville     CLOUDY    10   7  87 CALM      30.10S
Linden         FAIR      20   6  55 CALM      30.11F
Perth Amboy      N/A    N/A N/A N/A NW6         N/A
Sussex         CLOUDY     6   3  87 CALM      30.07F
Andover        NOT AVBL
Trenton        CLEAR     19   6  57 CALM      30.10S
Millville      CLOUDY    23  17  78 CALM      30.13F
Atlantic City  CLOUDY    24  11  57 CALM      30.14S
Wrightstown    MOCLDY    19  11  71 CALM      30.10R
Toms River     PTCLDY    16  11  80 SW3       30.14R
Belmar         CLEAR     19   7  59 SW3       30.12F
$$

PAZ047>061-062-071-151000-
EASTERN PENNSYLVANIA

CITY           SKY/WX    TMP DP  RH WIND       PRES   REMARKS
Philadelphia   MOCLDY    25   6  44 CALM      30.14S
Allentown      PTCLDY    13   4  67 CALM      30.08F
Scranton       CLOUDY    11   5  77 SE3       30.03F
$$

CTZ002-004>006-009-010-012-RIZ004-006-007-MAZ004-011-015-151000-
SOUTHERN NEW ENGLAND
 IN CT

CITY           SKY/WX    TMP DP  RH WIND       PRES   REMARKS
Bradley INTL   MOCLDY    11   5  77 SE5       30.07F WCI   3
Hartford       PTCLDY    14   5  67 S5        30.10S WCI   6
Danbury        PTCLDY    11   5  77 CALM      30.07F
Wtrbury/Oxford CLOUDY     8   2  76 CALM      30.04S
Norwalk Harbor   N/A    N/A N/A N/A W8          N/A
Bridgeport     CLEAR     19   5  54 W7        30.10F WCI  10
Meriden        CLOUDY     6   3  87 CALM      30.09F
New Haven      CLEAR     20   6  55 W5        30.10S WCI  13
Chester        FAIR      14   3  62 NW5       30.06S WCI   6
Groton         CLEAR     18   5  57 W5        30.09S WCI  11
Wilimantic     PTCLDY    13   4  67 S5        30.07S WCI   5

 IN RI

CITY           SKY/WX    TMP DP  RH WIND       PRES   REMARKS
Providence     PTCLDY    13   5  70 SW6       30.08S WCI   4
Block Island   CLEAR     21  12  68 NW9       30.08S WCI  11
Westerly       CLEAR     17   6  62 CALM      30.08F
 IN MA

CITY           SKY/WX    TMP DP  RH WIND       PRES   REMARKS
Boston         MOCLDY    17   7  64 SW12      30.06R WCI   4
Worcester      CLEAR     12   3  67 W13       29.96S WCI  -3
Westfield      CLEAR     11   6  81 S3        30.06R
Provincetown   CLEAR     21  13  71 W10         N/A  WCI  10
Nantucket      CLEAR     23  13  65 NW13      30.06S WCI  11
$$

ANZ330-335-338-340-345-350-353-355-151000-
COASTAL MARINE OBSERVATIONS


STATION/POSITION TIME  SKY/WX   TEMP    WIND        PRES    VSBY  WAVE
                                AIR SEA DIR/SP/G                  HT/PER
                 (UTC)          (F)     (DEG/KT/KT) (MB)    (MI)  (FT/S)
NY HARB ENTRANCE 0850            27 50  340/ 10/ 14 1019.0          2/ 3
20 S FIRE ISLAND 0750            28 51  330/ 14/ 17 1019.4          4/ 5
GREAT SOUTH BAY  0830            22 45  310/  8/ 10   N/A
HUDSON CANYON    0750            34 56  350/ 10/ 16 1018.6          5/ 6
KINGS POINT      0836            23 42   10/  9/ 14 1020.2
EXECUTION ROCKS  0845            24     310/ 10/ 14   N/A
WESTERN LI SOUND NOT AVBL
CENTRAL LI SOUND NOT AVBL
ROBBINS REEF     0836            22     330/  8/ 10 1020.1
$$


>>>>>>>>>>>>>>>>>>>>>>>>>>>> KEY <<<<<<<<<<<<<<<<<<<<<<<<<<<
>                                                          <
>     SKY/WX - Sky Condition/Present Weather               <
>     TMP    - Temperature in Fahrenheit                   <
>     DP     - Dew Point in Fahrenheit                     <
>     RH     - Relative Humidity in Percent                <
>     WIND   - Direction (from) and Speed in MPH           <
>     PRES   - Mean Sea Level Pressure (inches of Hg)      <
>     WCI    - Wind Chill Index                            <
>     VSB    - VISIBILITY IN MILES                         <
>     HX     - HEAT INDEX                                  <
>     TC     - TEMPERATURE IN CELSIUS                      <
>     VRB    - VARIABLE WIND DIRECTION                     <
>                                                          <
>>>>>>>>>>>>>>>>>>>>>>>>>>>> KEY <<<<<<<<<<<<<<<<<<<<<<<<<<<




USA.gov is the U.S. government's official web portal to all federal, state and local government web resources and services.